Regional Weather Roundup
Issued by NWS Portland, ME

Home | Current Version | Previous Version | Text Only | Print | Product List | Glossary On
Versions: 1 2 3 4 5 6 7 8 9 10 11 12 13 14 15 16 17 18 19 20 21 22 23 24 25 26 27 28 29 30 31 32 33 34 35 36 37 38 39 40 41 42 43 44 45 46 47 48 49 50
684
ASUS41 KGYX 102310
RWRGYX
WEATHER ROUNDUP FOR MAINE AND NEW HAMPSHIRE
NATIONAL WEATHER SERVICE GRAY ME
600 PM EST SAT DEC 10 2016

MEZ002-005-006-010-012-015-018-020-021-024-026-027-029-110000-
MAINE

CITY           SKY/WX    TMP DP  RH WIND       PRES   REMARKS
PORTLAND       PTCLDY    19   3  49 NW7       30.34R
SANFORD        CLEAR     19   5  54 NW7       30.34R
BAR HARBOR     CLEAR     17   2  51 NW6       30.27R
WISCASSET      CLEAR     19   4  51 W3        30.33R
ROCKLAND       CLEAR     18   4  54 W7        30.29R
FRYEBURG       CLEAR     16   1  51 SW5       30.32R
LEWISTONAUBURN PTCLDY    18   5  57 NW8       30.31R
AUGUSTA        CLEAR     17   3  54 NW8       30.29R
WATERVILLE     CLEAR     17   5  59 NW6       30.26R
BANGOR         MOCLDY    17   2  51 NW9       30.26R
GREENVILLE       N/A     11   3  70 VRB7G21   30.13R
MILLINOCKET    CLOUDY    15   2  56 NW16G22   30.22R WCI  -1
HOULTON        CLEAR     10   2  69 NW6       30.15R
PRESQUE ISLE   CLEAR      8   2  76 W10       30.16R WCI  -6
FRENCHVILLE    MOCLDY     8  -1  66 NW10      30.09R WCI  -6
CARIBOU        CLEAR      6  -1  73 W6        30.13R
$$

NHZ002-005-008-009-011-012-014-110000-
NEW HAMPSHIRE

CITY           SKY/WX    TMP DP  RH WIND       PRES   REMARKS
PORTSMOUTH     PTCLDY    21   3  46 NW6       30.34R
ROCHESTER      CLEAR     20   2  45 NW7       30.32R
NASHUA         CLEAR     21   6  52 NW5       30.37R
MANCHESTER     CLEAR     22   3  44 NW7       30.34R
CONCORD        CLEAR     20   3  48 CALM      30.34R
LACONIA        CLEAR     18   5  57 W3        30.32R
PLYMOUTH         N/A     14   6  69 CALM      30.32R
BERLIN         MOCLDY    15   4  61 VRB3      30.25R
WHITEFIELD     CLOUDY    15   6  67 SW3       30.28R
JAFFREY        CLEAR     17   8  67 CALM      30.29R
KEENE          CLEAR     17   8  67 CALM      30.34R
LEBANON        CLEAR     13   6  74 CALM      30.32R
MT WASHINGTON  FOG       -9  -9 100 NW44        N/A  VSB 0   WCI -43
$$

VTZ005-007-008-110000-
VERMONT

CITY           SKY/WX    TMP DP  RH WIND       PRES   REMARKS
ST JOHNSBURY     N/A     15   7  70 MISG      30.30R
MONTPELIER     MOCLDY    11   5  77 CALM      30.32R
BURLINGTON     LGT SNOW  20  16  84 E3        30.36R FOG
$$

MAZ007-012-024-CTZ003-RIZ002-NYZ038-NYZ072-110000-
SOUTHERN NEW ENGLAND AND NY

CITY           SKY/WX    TMP DP  RH WIND       PRES   REMARKS
BOSTON         PTCLDY    26   4  38 NW14      30.37R WCI  14
WORCESTER      CLEAR     20   4  50 NW6       30.29R
NANTUCKET      CLEAR     29   8  41 NW14      30.33R WCI  18
PROVIDENCE     PTCLDY    28   7  41 W8        30.36R
HARTFORD       PTCLDY    25   9  50 NW3       30.37R
ALBANY         PTCLDY    23  12  62 W5        30.38R
NEW YORK CITY  MOCLDY    35  21  56 NW9       30.40R
$$

ANZ081-ANZ082-ANZ150-NHZ014-MEZ023>029-110000-
COASTAL MARINE OBSERVATIONS

STATION/POSITION TIME  TEMP    WIND        PRES    WAVE
                       AIR SEA DIR/SP/G            HT/PER
                 (UTC) (F)     (DEG/KT/KT) (MB)    (FT/S)
MOUNT DESERT ROC 2300   23                 1024.3R
MATINICUS ROCK   2200   23     320/ 22/ 27 1024.0R
ISLE OF SHOALS   2200   25     290/ 19/ 22 1026.4R
JEFFREYS LEDGE   2208      50                N/A     4/ 5
CASHES LEDGE BUO 2250   27 49  300/ 21/ 27 1025.2R   5/ 6
GEORGES BANK BUO 2250   37 48              1021.9R   9/ 8
$$

.............KEY..............
   WCI - WIND CHILL
   TC  - TEMPERATURE IN CELSIUS
   VSB - VISIBILITY IN MILES
   HX  - HEAT INDEX
   FAIR- INDICATES FEW OR NO CLOUDS BELOW 12,000 FT, WITH NO
         SIGNIFICANT WEATHER AND/OR OBSTRUCTIONS TO VISIBILITY.






USA.gov is the U.S. government's official web portal to all federal, state and local government web resources and services.